Location: Newark
(30.1000°N, 109.4667°E)
Time: 07:46:51
(UTC+00:00)

A-11 Canister half - Pass Details

Date: 19 February 2020
Orbit: 1517 x 1683 km, 47.2° (Epoch: 04 April)

Event Time Altitude Azimuth Distance (km) Brightness Sun altitude
Rises 11:01:32 0° 273° (W) 4,887 13.6 -6.9°
Reaches altitude 10° 11:05:14 10° 283° (WNW) 3,879 12.4 -7.6°
Maximum altitude 11:13:49 32° 344° (NNW) 2,482 10.2 -9.5°
Drops below altitude 10° 11:22:11 10° 45° (NE) 3,765 10.6 -11.3°
Enters shadow 11:23:35 - 50° (NE) 4,136 10.8 -11.6°
